Chillicothe, MO

1:06 PM CST on January 23, 2018 (GMT -0600)
Chillicothe

Weather History for KCDJ - March, 2014

Change the Weather History Date:

Sunday, March 16, 2014

  Actual Average (KIRK) Record (KIRK)
Temperature  
Mean Temperature 31 °F -  
Max Temperature 37 °F 52 °F 82 °F (2012)
Min Temperature 23 °F 29 °F 8 °F (1923)
Degree Days  
Heating Degree Days 34    
Moisture  
Dew Point 21 °F    
Average Humidity 67    
Maximum Humidity 92    
Minimum Humidity 48    
Precipitation  
Precipitation 0.25 in - - ()
Sea Level Pressure  
Sea Level Pressure 30.21 in    
Wind  
Wind Speed 14 mph (NNE)    
Max Wind Speed 22 mph    
Max Gust Speed 30 mph    
Averages and records for this station are not official NWS values.
T = Trace of Precipitation, MM = Missing Value Source: NWS Daily Summary

Daily Weather History Graph

Daily Weather History Graph

Search for Another Location

Airport or City:

Trip Planner

Search our weather history database for the weather conditions in past years. The results will help you decide how hot, cold, wet, or windy it might be!

Date:

Astronomy

Mar. 16, 2014 Rise Set
Actual Time 7:24 AM CDT 7:22 PM CDT
Civil Twilight 6:57 AM CDT 7:49 PM CDT
Nautical Twilight 6:25 AM CDT 8:20 PM CDT
Astronomical Twilight 5:54 AM CDT 8:52 PM CDT
Moon 7:40 PM CDT (3/16) 7:07 AM CDT (3/16)
Length of Visible Light 12h 51m
Length of Day
11h 58m
Full, 100% of the Moon is Illuminated
Mar 16
Full
Mar 16
Full
Mar 23
Last Quarter
Mar 30
New
Apr 7
First Quarter

Hourly Weather History & Observations

Time (CDT) Temp. Windchill Dew Point Humidity Pressure Visibility Wind Dir Wind Speed Gust Speed Precip Events Conditions
12:52 AM 37.9 °F 28.5 °F 26.1 °F 62% 30.09 in - NE 17.3 mph 27.6 mph N/A   Unknown
1:52 AM 37.9 °F 30.0 °F 25.0 °F 60% 30.12 in - NNE 12.7 mph 21.9 mph N/A   Unknown
2:52 AM 37.0 °F 26.7 °F 26.1 °F 65% 30.12 in - NNE 19.6 mph 29.9 mph N/A   Unknown
3:52 AM 33.1 °F 22.2 °F 30.0 °F 89% 30.13 in - NNE 17.3 mph 26.5 mph N/A   Unknown
4:52 AM 32.0 °F 22.1 °F 30.0 °F 92% 30.14 in - NNE 13.8 mph 25.3 mph 0.09 in   Unknown
5:52 AM 32.0 °F 22.5 °F 28.0 °F 85% 30.15 in - NNE 12.7 mph 23.0 mph 0.13 in   Unknown
6:52 AM 32.0 °F 21.6 °F 28.0 °F 85% 30.17 in - NNE 15.0 mph 24.2 mph 0.02 in   Unknown
7:52 AM 30.9 °F 22.2 °F 28.0 °F 89% 30.20 in - NNE 10.4 mph - N/A   Unknown
8:52 AM 32.0 °F 19.5 °F 25.0 °F 75% 30.23 in - NE 21.9 mph 28.8 mph 0.01 in   Unknown
9:52 AM 30.9 °F 19.4 °F 24.1 °F 76% 30.27 in - NE 17.3 mph 26.5 mph N/A   Unknown
10:52 AM 30.0 °F 20.5 °F 21.9 °F 72% 30.30 in - NE 11.5 mph 20.7 mph N/A   Unknown
11:52 AM 30.0 °F 18.3 °F 21.0 °F 69% 30.33 in - NNE 17.3 mph 24.2 mph N/A   Unknown
12:52 PM 30.0 °F 19.5 °F 21.0 °F 69% 30.33 in - NNE 13.8 mph 25.3 mph N/A   Unknown
1:52 PM 32.0 °F 22.5 °F 19.9 °F 61% 30.30 in - NE 12.7 mph 23.0 mph N/A   Unknown
2:52 PM 34.0 °F 24.2 °F 19.0 °F 54% 30.26 in - NE 15.0 mph 20.7 mph N/A   Unknown
3:52 PM 35.1 °F 26.4 °F 19.9 °F 54% 30.24 in - NNE 12.7 mph 20.7 mph N/A   Unknown
4:52 PM 36.0 °F 29.6 °F 19.9 °F 52% 30.22 in - North 8.1 mph 17.3 mph N/A   Unknown
5:52 PM 35.1 °F 27.9 °F 18.0 °F 50% 30.22 in - North 9.2 mph 17.3 mph N/A   Unknown
6:52 PM 33.1 °F 26.1 °F 15.1 °F 48% 30.22 in - North 8.1 mph - N/A   Unknown
7:52 PM 30.0 °F 24.1 °F 12.9 °F 49% 30.22 in - North 5.8 mph - N/A   Unknown
8:52 PM 28.0 °F 21.7 °F 12.9 °F 53% 30.23 in - NE 5.8 mph - N/A   Unknown
9:52 PM 26.1 °F 21.9 °F 12.9 °F 58% 30.24 in - ENE 3.5 mph - N/A   Unknown
10:52 PM 25.0 °F 19.3 °F 14.0 °F 63% 30.22 in - East 4.6 mph - N/A   Unknown
11:52 PM 23.0 °F - 14.0 °F 68% 30.20 in - Calm Calm - N/A   Unknown